Wind_Speed
42 42 41 41 41 43 42 39 36 35 34 32 31 30 28 27 26 25 22 21 20 18 17 16 15 14 14 13 13 12 12 12 12 12 12 12 12 12 11 11 11 11 11 11 11 12 12 12 12
43 42 41 42 43 42 41 38 36 36 35 33 32 31 29 28 27 25 24 22 21 20 18 18 17 16 15 15 14 14 14 14 13 13 13 13 13 13 13 13 13 13 13 13 13 13 13 14 14
42 42 41 42 43 41 39 37 36 37 36 34 32 32 30 29 28 25 24 23 22 21 20 19 18 18 17 16 16 16 15 15 14 14 14 14 14 14 14 14 14 15 15 15 15 15 15 15 15
42 42 41 42 42 40 38 36 37 37 36 35 33 33 31 29 28 26 24 24 23 22 21 20 19 19 18 17 17 17 16 16 16 16 16 16 16 16 16 16 16 17 17 17 17 17 17 17 17
41 41 42 42 41 40 38 37 37 37 36 35 33 32 31 29 28 27 25 24 23 23 22 21 20 20 19 18 18 18 17 17 17 17 18 18 18 18 18 18 19 19 19 19 19 19 20 20 20
39 41 41 42 40 39 38 37 36 37 36 34 33 32 31 31 29 28 26 24 24 23 23 22 22 21 20 20 20 19 19 19 19 19 19 20 20 20 20 20 20 20 21 21 21 21 21 22 22
38 39 40 40 39 38 38 37 36 36 36 34 32 31 31 31 30 29 28 26 25 24 23 23 23 22 22 22 22 22 22 21 21 21 22 22 22 22 22 21 21 21 22 22 23 23 23 23 23
36 37 37 38 37 37 37 37 36 36 35 34 32 30 30 31 31 29 28 27 26 25 25 24 24 24 23 23 24 23 23 23 23 23 23 23 23 23 23 23 23 23 24 24 24 24 25 25 25
32 34 36 36 35 35 35 36 35 36 34 33 32 31 30 30 30 29 28 28 27 26 26 25 24 24 24 24 24 24 24 24 24 24 24 24 25 25 25 25 25 25 25 25 25 26 26 26 27
30 31 33 35 33 33 34 35 35 34 33 32 33 32 30 29 28 28 28 28 28 27 26 26 25 24 24 25 24 24 25 25 25 25 25 25 26 26 26 26 26 26 26 26 26 26 27 27 27
28 30 31 33 32 32 32 33 34 32 31 32 32 31 30 29 28 28 28 28 28 28 27 26 26 26 25 25 25 25 25 25 26 26 26 26 26 27 27 27 27 27 27 28 28 28 29 29 29
26 28 30 30 30 30 30 32 32 31 30 31 32 31 30 30 28 28 28 28 28 27 27 28 27 27 26 26 26 26 26 26 26 26 27 27 27 28 28 28 28 29 29 30 30 31 30 31 31
24 26 27 27 27 28 28 30 30 30 29 31 31 30 30 30 28 28 28 28 28 29 28 27 27 28 28 28 28 27 26 27 27 28 28 28 28 28 29 29 30 31 31 32 32 32 32 33 33
23 24 25 24 25 26 26 27 27 28 28 29 30 30 30 30 28 27 27 27 27 28 28 28 28 28 29 29 28 28 27 28 28 28 29 29 29 29 30 30 31 32 32 33 33 33 34 34 34
20 22 21 22 22 22 24 26 26 27 28 28 29 28 28 28 28 28 28 27 28 28 28 28 28 29 29 29 28 29 29 29 29 29 29 29 29 29 31 31 31 32 33 33 34 34 35 35 35
18 19 20 21 21 21 21 23 26 27 27 27 27 26 26 26 27 27 27 28 28 28 28 28 28 28 28 28 28 28 29 29 29 29 29 30 30 30 31 32 32 32 32 33 33 34 35 36 36
16 18 18 18 18 19 20 20 22 24 24 25 26 26 25 25 25 26 26 27 28 28 28 28 29 29 28 28 28 29 29 29 29 29 30 30 30 31 31 31 32 32 32 33 33 33 34 35 36
14 15 16 17 16 16 18 19 20 22 23 24 25 25 25 25 25 25 26 26 27 28 28 29 29 29 29 29 29 29 29 29 28 29 30 31 31 31 31 31 32 32 32 33 33 35 35 36 36
11 13 14 14 15 16 17 19 20 20 22 23 23 23 24 24 24 24 25 26 27 28 28 29 29 29 30 30 30 30 31 31 30 30 31 31 31 32 32 32 32 32 33 34 34 35 35 35 36
10 11 13 13 14 15 16 18 19 20 20 21 23 23 23 24 24 24 25 26 27 28 28 29 30 30 30 31 32 31 31 31 32 32 32 33 33 32 32 31 32 32 33 34 34 35 35 36 36
9 9 10 12 14 15 15 17 18 19 20 21 22 23 24 24 25 26 26 26 27 28 29 29 30 31 31 32 32 32 32 32 33 33 32 32 33 33 33 33 32 33 33 34 35 35 36 36 37
8 8 9 11 13 15 16 16 17 18 19 20 21 22 24 24 25 26 27 28 28 29 30 31 31 31 32 32 33 33 33 33 33 33 34 34 33 33 33 34 33 34 34 35 35 36 37 37 37
7 8 9 10 12 14 15 16 16 18 19 20 21 22 24 25 26 27 28 29 29 30 30 31 32 32 33 34 34 34 34 34 34 34 35 34 34 35 34 34 34 34 35 36 37 38 38 38 38
5 6 8 10 12 13 14 15 16 17 19 20 21 22 24 26 27 28 29 30 30 30 31 31 32 33 33 34 34 34 35 35 35 34 34 35 35 36 36 36 35 35 35 36 37 38 39 39 39
5 6 7 9 11 12 13 14 15 17 18 20 21 23 24 25 26 27 28 29 29 30 30 31 31 32 33 34 34 35 35 35 35 35 35 35 36 36 36 37 37 37 37 38 39 39 39 39 39
6 7 8 10 11 12 13 15 15 16 17 19 21 22 23 24 24 25 27 28 29 29 30 31 32 32 33 34 35 35 35 35 35 36 36 36 36 37 37 37 38 39 40 40 39 39 40 39 39
7 8 9 11 11 12 13 14 15 15 16 17 19 20 21 22 23 25 26 28 29 30 31 31 32 33 34 34 35 35 35 36 36 37 37 37 38 38 38 38 39 39 40 40 40 40 39 39 38
8 9 10 11 12 13 13 14 15 15 16 17 18 19 20 22 24 25 26 27 29 30 31 32 33 34 34 35 35 35 36 36 37 37 38 38 39 39 40 40 40 40 40 40 40 40 39 38 38
10 10 11 12 13 13 14 14 14 15 16 17 18 19 20 22 24 25 27 28 29 30 31 31 32 33 34 35 35 36 36 36 37 37 38 38 39 40 40 41 41 40 40 41 40 40 39 39 39
12 12 13 14 15 15 16 16 16 16 17 18 19 21 22 23 25 26 28 29 30 31 31 32 32 32 33 34 34 35 35 36 36 37 38 38 39 39 40 40 40 41 41 41 41 41 41 41 41
Wind_Direction
234 233 232 230 231 231 231 231 231 231 232 232 231 230 230 231 233 234 232 231 230 230 231 235 238 241 243 245 247 250 253 258 261 263 265 267 268 269 270 272 274 275 276 276 275 274 275 276 277
231 231 230 230 230 231 231 230 230 229 231 231 230 229 230 231 233 234 232 231 231 233 234 237 240 244 247 249 249 251 254 257 260 262 264 266 268 269 270 272 273 273 274 275 274 275 275 276 277
229 229 229 229 230 230 230 228 228 228 229 229 228 228 230 232 231 232 232 232 232 234 236 238 242 245 248 250 251 252 253 256 258 260 263 266 268 269 271 272 272 273 274 274 274 274 275 276 277
227 227 227 229 228 229 228 226 226 227 228 228 227 227 228 231 231 229 230 232 233 233 235 237 241 244 246 248 250 251 252 255 257 261 264 267 269 270 271 272 273 274 274 274 274 274 275 275 275
225 225 226 226 226 226 225 225 225 225 226 228 227 228 228 229 230 228 228 232 233 233 234 236 239 242 245 247 250 252 253 255 258 262 265 267 270 272 273 273 274 274 274 274 274 275 275 275 275
223 224 225 224 223 223 223 224 224 224 224 227 227 227 228 228 230 228 229 231 233 234 235 237 239 242 245 249 251 253 255 257 260 263 266 268 270 272 274 274 274 274 274 275 276 276 276 276 276
220 222 223 222 222 222 221 221 222 223 224 224 225 228 229 230 231 230 230 232 235 237 236 237 241 243 246 249 252 254 256 258 261 264 266 268 271 272 273 274 274 275 275 276 277 277 277 277 277
218 219 220 220 220 220 219 220 221 222 223 223 224 227 228 230 231 231 232 234 237 238 239 239 242 244 247 250 252 254 257 259 261 263 266 269 270 271 272 273 274 275 276 277 277 277 276 276 276
214 216 217 217 217 218 218 219 220 222 223 222 223 225 227 228 230 232 232 233 235 237 239 241 244 246 248 251 253 256 259 261 263 265 267 268 270 271 272 273 275 276 276 277 277 277 277 276 276
212 214 215 214 215 217 218 219 218 220 221 220 222 224 224 225 227 229 232 233 233 236 238 241 245 246 249 253 256 258 260 262 265 266 268 269 270 271 273 274 275 276 276 276 276 276 277 277 276
211 211 212 212 213 216 218 218 216 217 217 218 221 223 224 223 226 227 230 233 234 236 239 242 245 247 250 254 258 259 261 263 266 267 268 270 271 272 273 273 274 275 276 276 277 278 277 276 276
209 209 209 210 211 214 217 215 214 215 214 216 220 222 223 224 227 228 230 233 235 237 240 243 246 249 252 255 259 261 262 264 265 266 268 270 272 272 273 274 275 275 276 276 277 278 278 277 276
205 207 207 209 210 214 216 215 216 215 214 215 218 221 222 223 225 226 229 233 237 240 242 246 250 254 256 258 260 262 263 264 265 267 269 270 271 272 274 276 277 277 276 276 277 278 277 277 277
200 203 205 207 211 214 213 214 216 214 213 214 216 220 223 226 226 228 230 233 237 241 244 248 252 255 257 260 263 264 264 264 265 267 269 270 272 273 274 275 277 278 278 278 278 277 277 276 276
196 201 204 208 209 210 213 215 215 215 215 216 217 221 224 226 229 231 234 237 241 244 246 248 252 256 259 260 262 264 265 265 266 267 269 270 272 274 275 276 278 279 279 278 278 277 277 277 276
194 200 202 204 206 210 212 212 212 214 216 218 220 223 225 227 230 233 236 239 243 246 247 249 253 256 259 260 262 264 265 266 266 267 269 271 272 275 276 278 278 279 280 279 280 279 278 277 277
197 200 202 205 206 209 213 212 212 216 218 220 223 225 228 230 233 235 237 240 243 245 248 251 253 257 260 262 263 264 265 266 267 268 269 272 273 274 276 277 279 279 280 281 280 281 281 281 280
200 202 203 207 209 210 212 216 217 219 220 222 225 229 232 234 236 238 240 242 244 246 249 252 254 257 260 262 264 264 265 267 268 268 270 272 274 274 276 278 280 280 280 281 281 281 282 281 280
200 202 206 210 215 218 218 220 221 223 225 228 230 232 233 235 237 240 243 245 246 249 252 255 255 257 260 262 263 264 265 266 267 269 271 272 274 274 275 277 279 280 280 281 282 282 282 282 281
195 199 206 212 218 221 224 224 226 227 228 231 232 232 234 238 240 242 245 248 249 252 255 258 259 260 261 262 262 264 265 266 267 270 272 272 273 275 276 276 277 279 281 282 283 284 283 283 283
201 205 213 218 221 225 228 228 229 231 231 233 234 234 234 238 242 245 247 250 253 254 256 258 260 261 261 261 262 263 265 267 268 271 272 273 273 273 274 275 277 278 280 281 283 284 284 285 284
208 213 220 225 227 229 231 231 231 232 233 234 236 239 241 243 246 247 249 252 254 255 256 258 260 260 260 260 262 263 265 267 269 271 272 273 273 273 274 275 277 278 281 282 283 283 284 285 285
218 221 226 227 231 233 234 235 234 234 235 237 240 244 247 248 249 250 252 253 255 257 259 259 260 259 260 261 262 264 265 267 269 271 272 273 274 275 276 277 279 281 282 283 284 284 284 285 285
223 227 231 233 235 237 239 239 239 240 241 243 244 246 250 251 250 251 252 254 257 258 260 260 260 260 261 262 263 264 266 267 269 271 273 274 275 276 277 278 279 281 283 284 285 285 284 285 285
239 240 242 239 239 241 244 246 247 247 248 249 248 249 251 252 251 251 253 254 257 259 262 263 264 265 264 264 265 266 266 267 268 270 272 274 275 277 279 280 280 281 283 285 285 285 285 286 285
262 259 257 253 249 249 250 252 254 253 253 251 251 251 252 253 254 254 254 255 258 262 265 266 267 266 265 265 266 267 268 268 269 270 272 274 276 277 279 280 281 282 283 285 286 286 286 286 286
276 271 268 263 259 256 255 258 260 257 257 254 254 255 256 257 258 259 259 259 261 263 266 267 267 267 266 267 267 268 268 269 270 271 272 274 276 277 278 280 282 283 284 285 286 286 286 286 286
284 278 273 270 268 267 264 265 265 264 263 260 260 261 261 262 264 264 263 263 263 264 267 267 267 268 268 268 269 269 270 270 271 272 274 276 277 278 279 281 282 284 284 285 286 286 286 285 286
289 281 275 273 272 274 273 271 267 265 263 263 264 263 265 265 267 267 266 266 266 267 268 269 270 269 270 270 270 270 271 271 272 273 275 276 278 279 280 282 283 283 284 285 286 285 285 285 285
287 283 279 274 273 273 273 274 272 269 268 269 269 268 267 268 268 268 269 269 269 269 269 270 270 271 271 272 272 272 272 272 273 274 276 277 278 280 281 282 283 284 285 286 286 285 285 284 285
Height
5792 5796 5801 5805 5808 5812 5817 5824 5829 5833 5835 5838 5841 5844 5848 5851 5855 5860 5861 5862 5864 5866 5868 5870 5871 5872 5873 5874 5875 5876 5876 5877 5877 5877 5877 5878 5878 5878 5878 5878 5878 5878 5877 5877 5877 5876 5876 5876 5876
5783 5788 5793 5796 5800 5805 5812 5818 5823 5827 5830 5833 5836 5839 5842 5846 5850 5853 5856 5858 5861 5863 5865 5867 5868 5870 5871 5872 5873 5873 5874 5874 5875 5875 5875 5876 5876 5876 5876 5876 5876 5876 5875 5875 5875 5874 5874 5874 5873
5774 5779 5784 5788 5792 5799 5807 5812 5817 5820 5823 5826 5830 5834 5838 5841 5845 5849 5852 5854 5857 5860 5862 5863 5865 5866 5868 5869 5870 5870 5871 5872 5872 5873 5873 5873 5873 5873 5873 5873 5873 5873 5873 5873 5872 5872 5872 5871 5871
5765 5770 5775 5781 5787 5795 5800 5806 5810 5813 5817 5820 5825 5829 5833 5837 5841 5844 5847 5850 5853 5856 5858 5860 5861 5863 5864 5866 5867 5868 5868 5869 5870 5870 5870 5871 5871 5871 5871 5871 5870 5870 5870 5870 5869 5869 5869 5868 5868
5757 5762 5767 5773 5781 5788 5794 5798 5802 5807 5811 5816 5820 5824 5828 5832 5836 5840 5843 5846 5849 5852 5854 5856 5858 5859 5861 5862 5863 5864 5865 5866 5867 5867 5867 5868 5868 5868 5868 5867 5867 5867 5867 5866 5866 5866 5865 5865 5864
5749 5754 5761 5767 5775 5781 5787 5792 5797 5801 5806 5810 5815 5819 5823 5827 5831 5835 5838 5842 5845 5847 5850 5852 5854 5856 5857 5859 5860 5861 5862 5863 5863 5864 5864 5864 5864 5864 5864 5864 5864 5863 5863 5863 5862 5862 5861 5861 5861
5744 5750 5755 5763 5769 5775 5781 5786 5791 5796 5800 5806 5811 5815 5818 5823 5827 5831 5834 5837 5840 5843 5846 5848 5850 5852 5853 5855 5856 5857 5858 5859 5859 5860 5860 5860 5860 5860 5860 5860 5860 5859 5859 5859 5858 5858 5857 5857 5856
5738 5745 5750 5757 5763 5770 5776 5781 5786 5791 5796 5801 5806 5810 5814 5818 5822 5826 5830 5833 5836 5838 5841 5843 5845 5847 5849 5850 5851 5852 5853 5854 5855 5855 5855 5856 5856 5856 5856 5856 5855 5855 5855 5854 5853 5853 5852 5852 5851
5734 5741 5746 5753 5759 5765 5770 5776 5781 5786 5792 5797 5801 5806 5810 5814 5818 5821 5825 5829 5831 5834 5836 5838 5840 5842 5844 5845 5846 5847 5848 5849 5850 5850 5850 5851 5851 5851 5851 5851 5850 5850 5850 5849 5848 5848 5847 5846 5846
5731 5737 5743 5750 5756 5761 5766 5771 5777 5782 5788 5793 5797 5801 5805 5809 5813 5817 5821 5824 5827 5830 5832 5834 5835 5837 5839 5840 5841 5842 5843 5844 5844 5845 5845 5845 5846 5845 5845 5845 5845 5845 5844 5844 5843 5842 5842 5841 5840
5728 5734 5740 5746 5752 5757 5762 5767 5773 5778 5784 5789 5793 5796 5801 5805 5808 5812 5816 5819 5822 5825 5827 5829 5831 5833 5834 5835 5836 5837 5837 5838 5839 5839 5840 5840 5840 5840 5840 5839 5839 5839 5839 5838 5837 5836 5836 5835 5834
5727 5732 5738 5743 5749 5754 5759 5764 5769 5775 5780 5784 5788 5792 5797 5801 5805 5808 5812 5815 5818 5820 5822 5824 5826 5827 5829 5830 5831 5831 5832 5833 5833 5834 5834 5834 5834 5834 5834 5834 5833 5833 5832 5832 5831 5830 5829 5829 5828
5726 5731 5736 5742 5747 5752 5756 5761 5766 5771 5776 5780 5785 5789 5792 5797 5800 5804 5807 5810 5813 5815 5818 5819 5821 5823 5824 5825 5825 5826 5826 5827 5828 5828 5828 5828 5828 5828 5828 5828 5827 5827 5826 5825 5825 5824 5823 5822 5821
5726 5731 5736 5740 5745 5749 5754 5759 5764 5768 5773 5777 5781 5785 5789 5792 5796 5799 5802 5805 5808 5810 5813 5815 5816 5817 5818 5819 5819 5820 5820 5821 5821 5822 5822 5822 5822 5822 5822 5821 5820 5820 5819 5818 5817 5816 5815 5814 5814
5727 5731 5735 5739 5743 5748 5752 5757 5761 5766 5770 5774 5778 5782 5785 5789 5792 5795 5798 5800 5803 5805 5807 5809 5810 5811 5812 5812 5813 5813 5814 5814 5815 5815 5815 5815 5815 5815 5815 5814 5814 5813 5811 5811 5810 5809 5808 5807 5806
5727 5731 5735 5739 5742 5746 5752 5756 5759 5762 5767 5771 5775 5778 5782 5785 5788 5791 5793 5796 5798 5800 5802 5803 5805 5806 5806 5806 5807 5807 5808 5808 5808 5809 5809 5809 5809 5808 5808 5807 5806 5805 5804 5803 5802 5801 5800 5798 5797
5727 5731 5735 5739 5741 5745 5750 5754 5757 5760 5764 5768 5772 5775 5778 5781 5784 5787 5789 5791 5793 5795 5796 5798 5799 5800 5800 5800 5801 5801 5802 5802 5802 5802 5802 5802 5802 5801 5801 5800 5799 5798 5797 5795 5794 5793 5791 5790 5788
5729 5731 5735 5738 5741 5745 5748 5752 5755 5758 5762 5765 5768 5771 5775 5777 5780 5782 5784 5786 5788 5789 5790 5792 5793 5794 5794 5794 5795 5795 5796 5796 5796 5796 5795 5795 5795 5794 5793 5793 5792 5790 5789 5788 5786 5785 5783 5781 5779
5729 5732 5735 5738 5740 5743 5746 5749 5752 5755 5759 5761 5764 5767 5770 5773 5775 5777 5779 5781 5782 5784 5785 5785 5787 5788 5788 5788 5789 5789 5789 5789 5789 5788 5788 5788 5787 5786 5786 5785 5784 5782 5781 5779 5778 5776 5774 5772 5770
5729 5732 5734 5737 5739 5742 5744 5747 5749 5752 5755 5758 5760 5763 5766 5768 5770 5772 5774 5775 5777 5778 5779 5779 5780 5781 5782 5782 5782 5782 5782 5782 5782 5781 5781 5781 5780 5779 5777 5777 5776 5774 5773 5771 5769 5767 5765 5763 5761
5729 5731 5733 5736 5738 5740 5742 5745 5747 5749 5751 5753 5756 5759 5761 5764 5766 5767 5768 5769 5770 5771 5772 5773 5774 5774 5775 5775 5775 5775 5775 5775 5775 5774 5773 5773 5772 5771 5769 5768 5767 5766 5765 5763 5761 5759 5757 5755 5752
5729 5731 5732 5734 5736 5738 5740 5742 5744 5745 5747 5749 5752 5754 5756 5758 5760 5761 5762 5763 5764 5765 5765 5766 5767 5767 5767 5767 5767 5768 5767 5767 5767 5767 5766 5765 5764 5763 5762 5761 5759 5758 5756 5754 5752 5750 5748 5746 5743
5729 5730 5731 5732 5734 5736 5737 5739 5742 5742 5744 5746 5748 5749 5751 5753 5754 5755 5756 5757 5757 5757 5758 5758 5759 5759 5759 5759 5759 5759 5759 5759 5759 5758 5758 5757 5756 5755 5753 5752 5751 5749 5747 5745 5743 5741 5739 5736 5734
5728 5729 5730 5731 5732 5734 5735 5736 5738 5739 5740 5742 5743 5744 5745 5746 5747 5748 5749 5750 5750 5750 5751 5751 5751 5751 5751 5751 5751 5751 5751 5751 5751 5750 5749 5748 5747 5746 5745 5744 5742 5741 5739 5737 5735 5732 5730 5727 5725
5728 5729 5729 5729 5729 5731 5732 5732 5735 5735 5736 5737 5738 5739 5739 5740 5741 5742 5742 5743 5743 5743 5743 5743 5743 5743 5743 5743 5743 5743 5742 5742 5742 5742 5741 5740 5739 5738 5737 5735 5734 5732 5730 5728 5726 5723 5721 5718 5715
5726 5727 5728 5728 5727 5728 5728 5729 5731 5731 5731 5732 5733 5733 5734 5734 5735 5735 5736 5736 5736 5736 5736 5735 5735 5735 5735 5735 5734 5734 5734 5734 5733 5733 5732 5732 5731 5729 5728 5726 5725 5723 5721 5719 5717 5714 5711 5708 5706
5725 5725 5725 5725 5725 5725 5725 5726 5727 5726 5727 5727 5728 5728 5729 5729 5729 5729 5729 5729 5729 5729 5728 5728 5727 5727 5726 5726 5726 5726 5725 5725 5725 5724 5724 5723 5721 5720 5719 5717 5716 5714 5712 5710 5707 5705 5702 5699 5697
5723 5722 5722 5722 5721 5721 5722 5722 5723 5722 5722 5722 5723 5723 5723 5723 5723 5723 5722 5722 5722 5721 5720 5720 5719 5719 5718 5718 5717 5717 5716 5716 5715 5715 5714 5713 5712 5711 5709 5708 5706 5704 5702 5700 5698 5695 5692 5690 5688
5721 5720 5719 5718 5718 5718 5718 5721 5718 5717 5717 5717 5717 5717 5717 5716 5716 5716 5715 5715 5714 5713 5713 5712 5711 5710 5710 5709 5708 5708 5707 5707 5706 5705 5704 5703 5702 5701 5699 5698 5696 5694 5692 5690 5688 5685 5682 5680 5678
5716 5716 5715 5715 5714 5713 5713 5717 5713 5713 5712 5712 5711 5711 5710 5710 5709 5708 5707 5707 5706 5705 5704 5703 5703 5702 5701 5700 5699 5699 5698 5697 5696 5696 5694 5693 5692 5690 5689 5687 5685 5684 5682 5679 5677 5674 5672 5670 5667